TimeEST,TemperatureF,Dew PointF,Humidity,Sea Level PressureIn,VisibilityMPH,Wind Direction,Wind SpeedMPH,Gust SpeedMPH,PrecipitationIn,Events,Conditions,WindDirDegrees,DateUTC
12:14 AM,21.9,15.4,76,30.10,10.0,South,8.1,-,N/A,,Clear,190,2013-01-16 05:14:00
12:34 AM,22.5,15.1,73,30.09,10.0,SSW,6.9,-,N/A,,Scattered Clouds,200,2013-01-16 05:34:00
1:14 AM,20.3,14.5,78,30.07,10.0,South,3.5,-,N/A,,Clear,190,2013-01-16 06:14:00
1:34 AM,21.7,15.6,77,30.07,10.0,SSW,3.5,-,N/A,,Clear,200,2013-01-16 06:34:00
1:54 AM,20.3,14.7,79,30.06,10.0,SW,3.5,-,N/A,,Scattered Clouds,220,2013-01-16 06:54:00
2:14 AM,20.5,14.5,78,30.07,7.0,SW,3.5,-,N/A,,Scattered Clouds,220,2013-01-16 07:14:00
2:34 AM,20.3,14.7,79,30.06,10.0,SW,4.6,-,N/A,,Clear,220,2013-01-16 07:34:00
2:54 AM,18.5,13.3,80,30.05,10.0,SSW,6.9,-,N/A,,Clear,200,2013-01-16 07:54:00
3:14 AM,20.5,14.4,77,30.04,10.0,SSW,5.8,-,N/A,,Clear,210,2013-01-16 08:14:00
3:34 AM,21.0,14.5,76,30.04,10.0,SSW,6.9,-,N/A,,Clear,210,2013-01-16 08:34:00
4:14 AM,20.3,14.4,78,30.02,10.0,SW,5.8,-,N/A,,Clear,220,2013-01-16 09:14:00
4:34 AM,21.6,15.3,77,30.00,10.0,SSW,6.9,-,N/A,,Clear,210,2013-01-16 09:34:00
4:54 AM,22.1,15.6,76,30.00,10.0,SSW,5.8,-,N/A,,Clear,210,2013-01-16 09:54:00
5:14 AM,22.6,15.8,75,29.98,10.0,SSW,8.1,-,N/A,,Clear,200,2013-01-16 10:14:00
5:34 AM,23.0,16.2,75,29.97,10.0,SSW,9.2,-,N/A,,Clear,200,2013-01-16 10:34:00
5:54 AM,23.4,16.3,75,29.97,10.0,SSW,9.2,-,N/A,,Clear,200,2013-01-16 10:54:00
6:14 AM,23.7,16.5,74,29.95,10.0,SSW,10.4,-,N/A,,Clear,200,2013-01-16 11:14:00
6:34 AM,23.7,16.5,74,29.95,10.0,SW,6.9,-,N/A,,Clear,220,2013-01-16 11:34:00
6:54 AM,23.4,16.5,75,29.94,10.0,SSW,10.4,-,N/A,,Clear,210,2013-01-16 11:54:00
7:34 AM,23.9,16.7,74,29.92,10.0,SSW,10.4,-,N/A,,Clear,200,2013-01-16 12:34:00
7:54 AM,23.4,16.7,76,29.91,10.0,SSW,9.2,-,N/A,,Clear,210,2013-01-16 12:54:00
8:14 AM,23.9,16.9,75,29.91,10.0,SSW,10.4,-,N/A,,Clear,210,2013-01-16 13:14:00
8:34 AM,24.3,17.4,75,29.91,10.0,SW,10.4,-,N/A,,Clear,220,2013-01-16 13:34:00
8:54 AM,24.8,17.6,74,29.91,10.0,SW,10.4,-,N/A,,Clear,220,2013-01-16 13:54:00
9:13 AM,26.2,18.0,71,29.91,10.0,SW,11.5,-,N/A,,Clear,230,2013-01-16 14:13:00
9:34 AM,27.1,18.7,70,29.90,10.0,SW,10.4,18.4,N/A,,Clear,220,2013-01-16 14:34:00
9:54 AM,28.0,19.4,70,29.90,10.0,SW,13.8,-,N/A,,Clear,220,2013-01-16 14:54:00
10:14 AM,29.3,20.3,69,29.89,10.0,SW,13.8,-,N/A,,Clear,220,2013-01-16 15:14:00
10:33 AM,30.2,20.5,67,29.87,10.0,SSW,16.1,20.7,N/A,,Clear,210,2013-01-16 15:33:00
10:54 AM,31.6,21.4,66,29.86,10.0,SW,17.3,-,N/A,,Clear,220,2013-01-16 15:54:00
11:14 AM,32.5,21.7,64,29.84,10.0,SW,18.4,21.9,N/A,,Clear,230,2013-01-16 16:14:00
11:34 AM,33.3,21.4,62,29.84,10.0,SW,19.6,25.3,N/A,,Clear,230,2013-01-16 16:34:00
11:54 AM,33.8,20.7,59,29.83,10.0,SW,18.4,29.9,N/A,,Clear,230,2013-01-16 16:54:00
12:14 PM,34.0,20.3,57,29.82,10.0,SW,19.6,28.8,N/A,,Clear,230,2013-01-16 17:14:00
12:34 PM,34.7,21.2,58,29.81,10.0,WSW,19.6,25.3,N/A,,Clear,240,2013-01-16 17:34:00
12:54 PM,35.4,20.7,55,29.80,10.0,WSW,23.0,28.8,N/A,,Clear,240,2013-01-16 17:54:00
1:14 PM,35.6,20.7,55,29.78,10.0,WSW,20.7,27.6,N/A,,Clear,240,2013-01-16 18:14:00
1:34 PM,36.0,19.8,52,29.77,10.0,WSW,24.2,27.6,N/A,,Clear,240,2013-01-16 18:34:00
1:54 PM,36.9,19.8,50,29.77,10.0,WSW,21.9,28.8,N/A,,Clear,240,2013-01-16 18:54:00
2:14 PM,37.2,20.3,50,29.76,10.0,WSW,20.7,28.8,N/A,,Scattered Clouds,240,2013-01-16 19:14:00
2:34 PM,36.7,20.7,52,29.75,10.0,SW,17.3,-,N/A,,Mostly Cloudy,230,2013-01-16 19:34:00
3:14 PM,36.5,19.2,50,29.75,10.0,WSW,23.0,32.2,N/A,,Overcast,250,2013-01-16 20:14:00
3:34 PM,36.5,19.2,50,29.75,10.0,WSW,19.6,25.3,N/A,,Overcast,240,2013-01-16 20:34:00
3:54 PM,36.1,18.3,48,29.76,10.0,WSW,21.9,26.5,N/A,,Overcast,250,2013-01-16 20:54:00
4:14 PM,36.0,18.9,50,29.77,10.0,WSW,28.8,34.5,N/A,,Overcast,250,2013-01-16 21:14:00
4:34 PM,35.8,19.4,51,29.77,10.0,WSW,23.0,29.9,N/A,,Overcast,250,2013-01-16 21:34:00
4:54 PM,35.6,20.1,53,29.79,10.0,WSW,20.7,32.2,N/A,,Overcast,240,2013-01-16 21:54:00
5:14 PM,35.6,21.9,58,29.79,10.0,WSW,24.2,35.7,N/A,,Overcast,240,2013-01-16 22:14:00
5:33 PM,35.6,23.0,60,29.80,10.0,WSW,24.2,28.8,N/A,,Overcast,250,2013-01-16 22:33:00
5:54 PM,35.6,24.4,64,29.80,10.0,WSW,19.6,29.9,N/A,,Overcast,240,2013-01-16 22:54:00
6:14 PM,35.1,26.2,70,29.81,7.0,WSW,19.6,25.3,N/A,,Overcast,240,2013-01-16 23:14:00
6:34 PM,34.7,28.4,78,29.82,5.0,WSW,18.4,23.0,N/A,,Haze,250,2013-01-16 23:34:00
6:54 PM,34.7,30.2,84,29.83,4.0,WSW,15.0,20.7,N/A,,Overcast,240,2013-01-16 23:54:00
7:14 PM,34.9,30.7,85,29.83,7.0,WSW,15.0,21.9,N/A,,Overcast,240,2013-01-17 00:14:00
7:34 PM,35.1,30.7,84,29.84,7.0,WSW,13.8,-,N/A,,Overcast,250,2013-01-17 00:34:00
7:54 PM,35.1,30.7,84,29.84,7.0,WSW,10.4,-,N/A,,Overcast,250,2013-01-17 00:54:00
8:13 PM,35.1,30.7,84,29.85,7.0,WSW,10.4,-,N/A,,Overcast,250,2013-01-17 01:13:00
8:34 PM,35.8,29.5,78,29.86,10.0,West,9.2,16.1,N/A,,Overcast,270,2013-01-17 01:34:00
8:54 PM,36.9,27.5,69,29.87,10.0,West,19.6,25.3,N/A,,Overcast,270,2013-01-17 01:54:00
9:14 PM,37.0,27.3,68,29.88,10.0,West,11.5,17.3,N/A,,Overcast,270,2013-01-17 02:14:00
9:34 PM,36.7,27.9,70,29.88,10.0,West,11.5,-,N/A,,Overcast,260,2013-01-17 02:34:00
9:54 PM,37.0,27.5,68,29.89,10.0,West,11.5,17.3,N/A,,Overcast,280,2013-01-17 02:54:00
10:13 PM,36.9,28.2,71,29.90,10.0,West,10.4,18.4,N/A,,Overcast,270,2013-01-17 03:13:00
10:34 PM,36.9,27.9,70,29.91,10.0,West,11.5,-,N/A,,Overcast,280,2013-01-17 03:34:00
10:54 PM,36.7,27.7,70,29.91,10.0,West,11.5,16.1,N/A,,Overcast,280,2013-01-17 03:54:00
11:14 PM,36.7,27.5,69,29.92,10.0,West,11.5,16.1,N/A,,Overcast,280,2013-01-17 04:14:00
11:33 PM,36.7,27.7,70,29.92,10.0,West,6.9,-,N/A,,Overcast,280,2013-01-17 04:33:00
11:54 PM,36.7,28.0,71,29.93,10.0,West,9.2,-,N/A,,Overcast,280,2013-01-17 04:54:00